Accueil
METAR-TAF:

METAR-TAF

Aéroports :

Chino, Californie, États-Unis

latitude: 33-58-32N, longitude: 117-37-25W, altitude: 198 m

Observation

Le bulletin a été fait il y a 1 heure et 0 minutes, à 01:53 UTC
Vent 12 kt de sud-ouest
Température 17°C
Humidité 59%
Pression 1011 hPa
Visibilité: 16.1 km
Nuages fragmentés à une hauteur de 4600 ft

METAR: KCNO 050153Z COR 23012KT 10SM BKN046 17/09 A2985 RMK AO2 SLP105 T01670094 $

Heure: 19:53 (02:53 UTC)


TAF: absent

Observations et prévisions météorologiques de plus de 4000 aéroports (messages METAR et TAF).

Les stations disponibles sont représentées par des disques jaunes et rouges sur la carte.

Passer la souris dessus pour voir le nom de la station.

Cliquer dessus pour voir les observations et prévisions météorologiques.

Pour changer de carte: cliquez sur les boutons verts avec une croix noire pour zoomer, sur le bouton vert avec un tiret pour effectuer un zoom arrière, ou sur les flèches vertes pour les cartes adjacentes.


METAR-TAF: